Location: Arborea
(39.7744°N, 8.5819°E)
Time: 06:36:30
(UTC+00:00)

Cosmos 2322 - Pass Details

Date: 01 June 2022
Orbit: 840 x 855 km, 71.0° (Epoch: 03 July)

Event Time Altitude Azimuth Distance (km) Brightness Sun altitude
Exits shadow 21:03:27 38° 135° (SE) 1,288 4.1 -20.0°
Maximum altitude 21:04:35 42° 106° (ESE) 1,202 4.1 -20.1°
Drops below altitude 10° 21:09:56 10° 37° (NE) 2,492 6.4 -20.7°
Sets 21:12:30 0° 31° (NNE) 3,432 7.2 -20.9°
